Satellite: NOAA-16
Catalog number: 26536
Epoch time:      08010.46179933
Element set:     757
Inclination:      099.1416 deg
RA of node:       356.2751 deg
Eccentricity:    0.0009996
Arg of perigee:   314.6127 deg
Mean anomaly:     045.4234 deg
Mean motion:   14.12463718 rev/day
Decay rate:      -2.11e-06 rev/day^2
Epoch rev:           37636
Checksum:              314

Satellite: NOAA-17
Catalog number: 27453
Epoch time:      08009.82826073
Element set:    0755
Inclination:      098.5581 deg
RA of node:       078.9259 deg
Eccentricity:    0.0011527
Arg of perigee:   207.8436 deg
Mean anomaly:     152.2111 deg
Mean motion:   14.23939476 rev/day
Decay rate:        2.5e-07 rev/day^2
Epoch rev:           28812
Checksum:              321

Satellite: NOAA-18
Catalog number: 28654
Epoch time:      08009.87410704
Element set:    0267
Inclination:      098.8530 deg
RA of node:       312.9025 deg
Eccentricity:    0.0015062
Arg of perigee:   046.3082 deg
Mean anomaly:     313.9313 deg
Mean motion:   14.11127724 rev/day
Decay rate:       1.00e-06 rev/day^2
Epoch rev:           13600
Checksum:              263

/EX
SB KEPS @ AMSAT  $ORB08010.M
Orbital Elements  08010.MISC

HR AMSAT ORBITAL ELEMENTS FOR MANNED AND MISCELLANEOUS SATELLITES
FROM WA5QGD FORT WORTH,TX January 10, 2008
Send Subscribe/unsubscribe to KEPS at 
http://www.amsat.org/mailman/listinfo/keps
BID: ORB08010.M
TO ALL RADIO AMATEURS BT

Satellite: HUBBLE
Catalog number: 20580
Epoch time:      08010.82652910
Element set:      45
Inclination:      028.4701 deg
RA of node:       276.0489 deg
Eccentricity:    0.0004226
Arg of perigee:   146.0216 deg
Mean anomaly:     214.0644 deg
Mean motion:   15.00325609 rev/day
Decay rate:       4.54e-06 rev/day^2
Epoch rev:           77117
Checksum:              255

Satellite: UARS
Catalog number: 21701
Epoch time:      08009.84228450
Element set:    0282
Inclination:      056.9742 deg
RA of node:       135.8838 deg
Eccentricity:    0.0083730
Arg of perigee:   228.8731 deg
Mean anomaly:     130.5079 deg
Mean motion:   15.50181569 rev/day
Decay rate:      8.641e-05 rev/day^2
Epoch rev:           89777
Checksum:              325

Satellite: PO-34
Catalog number: 25520
Epoch time:      08010.59784711
Element set:     906
Inclination:      028.4592 deg
RA of node:       160.4628 deg
Eccentricity:    0.0004892
Arg of perigee:   356.9075 deg
Mean anomaly:     003.1491 deg
Mean motion:   15.17114065 rev/day
Decay rate:       6.06e-06 rev/day^2
Epoch rev:           50905
Checksum:              292

Satellite: ISS
Catalog number: 25544
Epoch time:      08011.03576389
Element set:     688
Inclination:      051.6403 deg
RA of node:       111.9399 deg
Eccentricity:    0.0002650
Arg of perigee:   049.5565 deg
Mean anomaly:     310.6642 deg
Mean motion:   15.78714598 rev/day
Decay rate:     2.8406e-04 rev/day^2
Epoch rev:           52357
Checksum:              318

Satellite: OO-38
Catalog number: 26063
Epoch time:      08009.71498467
Element set:     106
Inclination:      100.2149 deg
RA of node:       055.3831 deg
Eccentricity:    0.0036559
Arg of perigee:   298.9642 deg
Mean anomaly:     060.7879 deg
Mean motion:   14.35824753 rev/day
Decay rate:       -7.0e-08 rev/day^2
Epoch rev:           41668
Checksum:              332

Satellite: UWE-1
Catalog number: 28892
Epoch time:      08009.42573831
Element set:    0944
Inclination:      098.1148 deg
RA of node:       266.7228 deg
Eccentricity:    0.0017006
Arg of perigee:   185.0471 deg
Mean anomaly:     175.0546 deg
Mean motion:   14.59580493 rev/day
Decay rate:        7.4e-07 rev/day^2
Epoch rev:           11729
Checksum:              319

Satellite: CO-58
Catalog number: 28895
Epoch time:      08010.42646235
Element set:     919
Inclination:      098.1163 deg
RA of node:       267.9949 deg
Eccentricity:    0.0017564
Arg of perigee:   182.2697 deg
Mean anomaly:     177.8407 deg
Mean motion:   14.59623241 rev/day
Decay rate:        3.4e-07 rev/day^2
Epoch rev:           11732
Checksum:              340

Satellite: NCUBE2
Catalog number: 28897
Epoch time:      08010.27226604
Element set:     448
Inclination:      098.1131 deg
RA of node:       267.7820 deg
Eccentricity:    0.0016920
Arg of perigee:   184.4649 deg
Mean anomaly:     175.6396 deg
Mean motion:   14.59790823 rev/day
Decay rate:       1.24e-06 rev/day^2
Epoch rev:           10958
Checksum:              323

Satellite: FCAL
Catalog number: 29667
Epoch time:      08010.65671676
Element set:     657
Inclination:      051.6318 deg
RA of node:       079.2835 deg
Eccentricity:    0.0010239
Arg of perigee:   076.4291 deg
Mean anomaly:     283.7858 deg
Mean motion:   15.98616253 rev/day
Decay rate:     3.9380e-04 rev/day^2
Epoch rev:            6106
Checksum:              333

Satellite: FALCON
Catalog number: 30776
Epoch time:      08009.54259183
Element set:    0231
Inclination:      035.4341 deg
RA of node:       041.5969 deg
Eccentricity:    0.0000670
Arg of perigee:   030.1214 deg
Mean anomaly:     329.9541 deg
Mean motion:   15.02846898 rev/day
Decay rate:       5.45e-06 rev/day^2
Epoch rev:           04611
Checksum:              280

